1510959601.11,26007,8.38,73416.8,-4.27,-4.77,-4.77,0,*52
1510959602.38,26008,8.44,73418.0,-4.27,-4.77,-4.81,0,*54
1510959603.65,26009,8.38,73418.0,-4.27,-4.77,-4.81,0,*55
1510959604.93,26010,8.44,73422.3,-4.27,-4.81,-4.77,0,*5D
1510959606.2,26011,8.38,73416.3,-4.27,-4.77,-4.81,0,*5C
1510959607.47,26012,8.44,73420.5,-4.27,-4.81,-4.81,0,*56
1510959608.75,26013,8.38,73418.8,-4.27,-4.77,-4.81,0,*5E
1510959610.02,26014,8.38,73418.0,-4.27,-4.81,-4.77,0,*59
1510959611.29,26015,8.38,73418.8,-4.27,-4.77,-4.77,0,*51
1510959612.53,26016,8.38,73416.0,-4.25,-4.77,-4.77,0,*50
1510959613.81,26017,8.38,73418.5,-4.27,-4.81,-4.77,0,*5A
1510959615.08,26018,8.44,73418.8,-4.27,-4.77,-4.81,0,*55
1510959616.35,26019,8.38,73418.3,-4.27,-4.77,-4.77,0,*5D
1510959617.62,26020,8.38,73412.0,-4.27,-4.77,-4.81,0,*5E
1510959618.89,26021,8.38,73416.3,-4.27,-4.77,-4.77,0,*56
1510959620.16,26022,8.38,73418.3,-4.27,-4.77,-4.77,0,*55
1510959621.43,26023,8.44,73418.3,-4.27,-4.77,-4.77,0,*54
1510959622.7,26024,8.38,73418.0,-4.27,-4.77,-4.77,0,*53
1510959623.97,26025,8.38,73416.3,-4.27,-4.81,-4.77,0,*5B
1510959625.24,26026,8.38,73418.0,-4.27,-4.77,-4.77,0,*51
1510959626.49,26027,8.38,73416.8,-4.25,-4.77,-4.77,0,*52
1510959627.76,26028,8.38,73416.8,-4.27,-4.77,-4.77,0,*5F
1510959629.03,26029,8.38,73418.0,-4.27,-4.81,-4.81,0,*5E
1510959630.3,26030,8.38,73416.5,-4.27,-4.81,-4.77,0,*5F
1510959631.58,26031,8.38,73416.3,-4.27,-4.77,-4.81,0,*5E
1510959632.85,26032,8.38,73418.8,-4.27,-4.81,-4.81,0,*54
1510959634.12,26033,8.38,73414.8,-4.27,-4.77,-4.77,0,*55
1510959635.4,26034,8.44,73416.5,-4.27,-4.77,-4.81,0,*5B
1510959636.67,26035,8.44,73416.8,-4.27,-4.81,-4.77,0,*5A
1510959637.94,26036,8.38,73416.0,-4.27,-4.77,-4.77,0,*50
1510959639.21,26037,8.38,73416.3,-4.27,-4.77,-4.77,0,*51
1510959640.48,26038,8.38,73414.3,-4.27,-4.77,-4.77,0,*5E
1510959641.75,26039,8.38,73418.0,-4.27,-4.81,-4.81,0,*5F
1510959643.02,26040,8.38,73418.0,-4.27,-4.77,-4.77,0,*51
1510959644.29,26041,8.38,73418.3,-4.27,-4.77,-4.77,0,*50
1510959645.57,26042,8.38,73416.5,-4.27,-4.81,-4.81,0,*53
1510959646.84,26043,8.38,73418.5,-4.27,-4.77,-4.77,0,*52
1510959648.11,26044,8.38,73416.3,-4.27,-4.81,-4.77,0,*5C
1510959649.38,26045,8.38,73418.3,-4.27,-4.77,-4.77,0,*54
1510959650.65,26046,8.38,73414.5,-4.27,-4.77,-4.77,0,*57
1510959651.92,26047,8.38,73414.3,-4.27,-4.77,-4.77,0,*56
1510959653.19,26048,8.44,73416.8,-4.27,-4.77,-4.77,0,*59
1510959654.46,26049,8.38,73416.3,-4.27,-4.81,-4.81,0,*58
1510959655.71,26050,8.38,73414.5,-4.25,-4.77,-4.77,0,*52
1510959656.98,26051,8.38,73416.0,-4.27,-4.77,-4.77,0,*51
1510959658.25,26052,8.38,73418.3,-4.27,-4.77,-4.77,0,*52
1510959659.52,26053,8.38,73418.3,-4.27,-4.77,-4.77,0,*53
1510959660.79,26054,8.44,73418.0,-4.27,-4.81,-4.77,0,*5D
1510959662.06,26055,8.38,73416.3,-4.27,-4.77,-4.77,0,*55
1510959663.33,26056,8.38,73414.8,-4.27,-4.77,-4.77,0,*56
1510959664.6,26057,8.38,73414.3,-4.27,-4.77,-4.77,0,*57
1510959665.87,26058,8.38,73416.3,-4.27,-4.81,-4.81,0,*58
1510959667.15,26059,8.38,73414.3,-4.27,-4.81,-4.77,0,*50
1510959668.42,26060,8.38,73412.3,-4.27,-4.77,-4.81,0,*5A
1510959669.67,26061,8.38,73418.5,-4.25,-4.77,-4.81,0,*59
1510959670.93,26062,8.38,73414.5,-4.27,-4.77,-4.77,0,*51
1510959672.21,26063,8.38,73416.3,-4.27,-4.81,-4.77,0,*59
1510959673.48,26064,8.38,73416.5,-4.27,-4.81,-4.77,0,*5E
1510959674.75,26065,8.38,73416.5,-4.27,-4.77,-4.77,0,*56
1510959676.02,26066,8.38,73418.3,-4.27,-4.81,-4.77,0,*5C
1510959677.29,26067,8.38,73418.8,-4.27,-4.77,-4.77,0,*54
1510959678.56,26068,8.38,73418.8,-4.27,-4.77,-4.77,0,*5B
1510959679.84,26069,8.38,73418.3,-4.27,-4.81,-4.69,0,*5C
1510959681.11,26070,8.38,73416.3,-4.27,-4.81,-4.77,0,*5B
1510959682.38,26071,8.44,73418.8,-4.27,-4.81,-4.77,0,*5A
1510959683.65,26072,8.38,73418.3,-4.27,-4.77,-4.77,0,*50
1510959684.92,26073,8.38,73416.5,-4.27,-4.77,-4.77,0,*51
1510959686.18,26074,8.38,73414.8,-4.29,-4.81,-4.85,0,*5C
1510959687.43,26075,8.38,73416.0,-4.29,-4.85,-4.81,0,*5D
1510959688.7,26076,8.38,73416.8,-4.27,-4.81,-4.77,0,*5D
1510959689.97,26077,8.38,73412.5,-4.27,-4.77,-4.81,0,*5C
1510959691.24,26078,8.38,73418.3,-4.27,-4.77,-4.77,0,*5A
1510959692.51,26079,8.38,73418.0,-4.27,-4.81,-4.77,0,*52
1510959693.78,26080,8.38,73412.0,-4.27,-4.77,-4.77,0,*5D
1510959695.03,26081,8.38,73416.0,-4.25,-4.77,-4.81,0,*57
1510959696.28,26082,8.38,73416.5,-4.25,-4.77,-4.81,0,*54
1510959697.55,26083,8.38,73412.3,-4.27,-4.77,-4.77,0,*5E
1510959698.82,26084,8.44,73416.8,-4.27,-4.77,-4.81,0,*50
1510959700.09,26085,8.38,73416.0,-4.27,-4.81,-4.77,0,*51
1510959701.36,26086,8.38,73416.0,-4.27,-4.77,-4.77,0,*5B
1510959702.63,26087,8.44,73416.8,-4.27,-4.81,-4.77,0,*53
1510959703.91,26088,8.38,73414.8,-4.27,-4.77,-4.77,0,*55
1510959705.15,26089,8.38,73416.0,-4.25,-4.77,-4.81,0,*5F
1510959706.43,26090,8.38,73416.3,-4.27,-4.81,-4.81,0,*5C
1510959707.7,26091,8.38,73414.5,-4.27,-4.81,-4.77,0,*54
1510959708.98,26092,8.38,73412.8,-4.27,-4.81,-4.81,0,*5E
1510959710.25,26093,8.38,73416.5,-4.27,-4.69,-4.77,0,*50
1510959711.52,26094,8.38,73418.8,-4.27,-4.81,-4.77,0,*51
1510959712.77,26095,8.38,73412.8,-4.25,-4.81,-4.81,0,*5B
1510959714.04,26096,8.38,73416.0,-4.27,-4.81,-4.77,0,*53
1510959715.32,26097,8.38,73416.3,-4.27,-4.81,-4.81,0,*5B
1510959716.59,26098,8.38,73416.0,-4.27,-4.81,-4.69,0,*52
1510959717.87,26099,8.38,73416.5,-4.27,-4.81,-4.77,0,*5C
1510959719.14,26100,8.38,73412.8,-4.27,-4.81,-4.77,0,*5D
1510959720.41,26101,8.38,73412.0,-4.27,-4.81,-4.77,0,*5C
1510959721.69,26102,8.38,73414.8,-4.27,-4.81,-4.81,0,*56
1510959722.96,26103,8.38,73414.0,-4.27,-4.77,-4.81,0,*5E
1510959724.24,26104,8.38,73412.3,-4.27,-4.81,-4.77,0,*59
1510959725.51,26105,8.38,73414.8,-4.27,-4.81,-4.81,0,*51
1510959726.78,26106,8.38,73414.5,-4.27,-4.81,-4.77,0,*5B
1510959728.06,26107,8.38,73414.5,-4.27,-4.81,-4.77,0,*5A
1510959729.33,26108,8.38,73416.3,-4.27,-4.77,-4.77,0,*5C
1510959730.6,26109,8.38,73416.5,-4.27,-4.77,-4.77,0,*5D
1510959731.87,26110,8.44,73416.8,-4.27,-4.81,-4.77,0,*5C
1510959733.14,26111,8.38,73414.0,-4.27,-4.77,-4.81,0,*5D
1510959734.41,26112,8.44,73416.5,-4.27,-4.77,-4.77,0,*57
1510959735.69,26113,8.38,73412.0,-4.27,-4.81,-4.81,0,*56
1510959736.93,26114,8.38,73416.5,-4.25,-4.77,-4.89,0,*52
1510959738.2,26115,8.38,73414.0,-4.27,-4.77,-4.77,0,*50
1510959739.48,26116,8.38,73414.5,-4.27,-4.81,-4.81,0,*53
1510959740.75,26117,8.38,73414.5,-4.27,-4.77,-4.81,0,*5B
1510959742.01,26118,8.38,73412.3,-4.29,-4.81,-4.85,0,*57
1510959743.26,26119,8.38,73414.0,-4.29,-4.81,-4.85,0,*56
1510959744.53,26120,8.38,73412.5,-4.27,-4.77,-4.81,0,*5F
1510959745.78,26121,8.38,73412.3,-4.25,-4.81,-4.81,0,*55
1510959747.03,26122,8.38,73414.5,-4.25,-4.81,-4.81,0,*56
1510959748.3,26123,8.38,73412.3,-4.27,-4.69,-4.77,0,*5A
1510959749.57,26124,8.44,73416.0,-4.27,-4.77,-4.77,0,*52
1510959750.84,26125,8.38,73414.3,-4.27,-4.77,-4.77,0,*53
1510959752.12,26126,8.44,73418.8,-4.27,-4.81,-4.77,0,*59
1510959753.38,26127,8.38,73414.5,-4.27,-4.77,-4.77,0,*51
1510959754.63,26128,8.38,73414.3,-4.25,-4.81,-4.77,0,*55
1510959755.88,26129,8.38,73412.3,-4.25,-4.77,-4.77,0,*5D
1510959757.15,26130,8.38,73412.3,-4.27,-4.77,-4.77,0,*57
1510959758.42,26131,8.38,73414.0,-4.27,-4.77,-4.77,0,*56
1510959759.69,26132,8.38,73414.8,-4.27,-4.81,-4.77,0,*5C
1510959760.94,26133,8.38,73412.8,-4.25,-4.81,-4.81,0,*56
1510959762.21,26134,8.38,73412.5,-4.27,-4.77,-4.77,0,*53
1510959763.48,26135,8.38,73414.8,-4.27,-4.81,-4.81,0,*52
1510959764.76,26136,8.38,73412.8,-4.27,-4.81,-4.81,0,*51
1510959766.04,26137,8.38,73412.8,-4.27,-4.81,-4.81,0,*50
1510959767.31,26138,8.38,73414.5,-4.27,-4.77,-4.81,0,*56
1510959768.58,26139,8.38,73412.5,-4.27,-4.81,-4.77,0,*57
1510959769.85,26140,8.38,73412.5,-4.27,-4.77,-4.77,0,*50
1510959771.12,26141,8.38,73412.5,-4.27,-4.81,-4.77,0,*58
1510959772.4,26142,8.38,73414.5,-4.27,-4.81,-4.81,0,*52
1510959773.67,26143,8.38,73414.5,-4.27,-4.77,-4.77,0,*53
1510959774.94,26144,8.38,73414.5,-4.27,-4.81,-4.77,0,*5D
1510959776.22,26145,8.38,73412.8,-4.27,-4.81,-4.81,0,*55
1510959777.49,26146,8.38,73412.5,-4.27,-4.81,-4.77,0,*5F
1510959778.77,26147,8.44,73416.0,-4.27,-4.81,-4.81,0,*57
1510959780.04,26148,8.44,73416.3,-4.27,-4.77,-4.77,0,*58
1510959781.31,26149,8.38,73412.8,-4.27,-4.77,-4.77,0,*59
1510959782.58,26150,8.38,73412.8,-4.27,-4.77,-4.81,0,*58
1510959783.85,26151,8.44,73416.5,-4.27,-4.81,-4.77,0,*59
1510959785.12,26152,8.38,73410.0,-4.27,-4.77,-4.77,0,*53
1510959786.39,26153,8.38,73414.5,-4.27,-4.81,-4.77,0,*5B
1510959787.67,26154,8.38,73416.5,-4.27,-4.81,-4.77,0,*5C
1510959788.94,26155,8.38,73412.0,-4.27,-4.81,-4.81,0,*54
1510959790.22,26156,8.38,73414.5,-4.27,-4.81,-4.77,0,*5E
1510959791.47,26157,8.38,73414.5,-4.29,-4.85,-4.81,0,*5C
1510959792.74,26158,8.38,73412.3,-4.27,-4.81,-4.77,0,*50
1510959794.01,26159,8.38,73412.0,-4.27,-4.81,-4.77,0,*51
1510959795.28,26160,8.44,73416.5,-4.27,-4.77,-4.77,0,*52
1510959796.55,26161,8.44,73418.0,-4.27,-4.77,-4.77,0,*53
1510959797.83,26162,8.38,73412.8,-4.27,-4.81,-4.81,0,*50
1510959799.1,26163,8.38,73414.0,-4.27,-4.77,-4.77,0,*51
1510959800.37,26164,8.38,73412.0,-4.27,-4.77,-4.77,0,*56
1510959801.64,26165,8.38,73412.0,-4.27,-4.81,-4.77,0,*5E
1510959802.91,26166,8.38,73414.5,-4.27,-4.81,-4.81,0,*54
1510959804.18,26167,8.38,73414.3,-4.27,-4.77,-4.77,0,*55
1510959805.45,26168,8.38,73414.5,-4.27,-4.77,-4.77,0,*5A
1510959806.72,26169,8.44,73414.3,-4.27,-4.77,-4.77,0,*5B
1510959808.0,26170,8.38,73414.3,-4.27,-4.81,-4.77,0,*5A
1510959809.27,26171,8.38,73412.0,-4.27,-4.77,-4.77,0,*52
1510959810.53,26172,8.44,73416.0,-4.27,-4.77,-4.77,0,*51
1510959811.81,26173,8.38,73412.0,-4.27,-4.81,-4.81,0,*50
1510959813.06,26174,8.38,73410.0,-4.29,-4.81,-4.81,0,*59
1510959814.34,26175,8.44,73414.5,-4.27,-4.81,-4.77,0,*5F
1510959815.61,26176,8.44,73414.5,-4.27,-4.81,-4.77,0,*5C
1510959816.89,26177,8.38,73414.8,-4.27,-4.81,-4.81,0,*54
1510959818.16,26178,8.38,73414.8,-4.27,-4.77,-4.81,0,*52
1510959819.43,26179,8.38,73414.3,-4.27,-4.77,-4.81,0,*53
1510959820.7,26180,8.38,73412.3,-4.27,-4.77,-4.77,0,*5C
1510959821.98,26181,8.38,73410.8,-4.27,-4.81,-4.81,0,*5D
1510959823.25,26182,8.38,73412.5,-4.27,-4.81,-4.77,0,*57
1510959824.5,26183,8.44,73414.3,-4.29,-4.85,-4.81,0,*55
1510959825.75,26184,8.38,73412.3,-4.29,-4.85,-4.81,0,*52
1510959827.0,26185,8.38,73414.0,-4.29,-4.85,-4.85,0,*57
1510959828.26,26186,8.44,73418.5,-4.29,-4.81,-4.81,0,*54
1510959829.53,26187,8.38,73412.5,-4.27,-4.81,-4.77,0,*52
1510959830.8,26188,8.38,73412.5,-4.27,-4.77,-4.77,0,*54
1510959832.08,26189,8.38,73412.8,-4.27,-4.81,-4.81,0,*55
1510959833.35,26190,8.38,73412.3,-4.27,-4.81,-4.77,0,*54
1510959834.62,26191,8.38,73414.8,-4.27,-4.81,-4.81,0,*5C
1510959835.9,26192,8.38,73414.0,-4.27,-4.81,-4.81,0,*5F
1510959837.18,26193,8.38,73410.3,-4.27,-4.81,-4.81,0,*5E
1510959838.45,26194,8.38,73410.8,-4.27,-4.77,-4.77,0,*59
1510959839.72,26195,8.38,73414.3,-4.27,-4.81,-4.81,0,*58
1510959841.0,26196,8.38,73412.8,-4.27,-4.81,-4.81,0,*5B
1510959842.25,26197,8.38,73414.5,-4.29,-4.81,-4.81,0,*54
1510959843.53,26198,8.38,73414.0,-4.27,-4.81,-4.81,0,*55
1510959844.78,26199,8.38,73410.5,-4.29,-4.81,-4.85,0,*5E
1510959846.04,26200,8.38,73412.5,-4.29,-4.81,-4.85,0,*5D
1510959847.31,26201,8.38,73412.8,-4.27,-4.81,-4.77,0,*5F
1510959848.58,26202,8.38,73414.0,-4.27,-4.81,-4.77,0,*5C
1510959849.85,26203,8.38,73410.8,-4.27,-4.77,-4.81,0,*5D
1510959851.13,26204,8.38,73410.0,-4.27,-4.81,-4.77,0,*5A
1510959852.4,26205,8.38,73412.0,-4.27,-4.81,-4.81,0,*52
1510959853.68,26206,8.44,73414.3,-4.27,-4.81,-4.81,0,*51
1510959854.95,26207,8.38,73414.3,-4.27,-4.77,-4.81,0,*59
1510959856.22,26208,8.38,73412.5,-4.27,-4.81,-4.77,0,*56
1510959857.5,26209,8.38,73404.5,-4.27,-4.81,-4.77,0,*57
1510959858.75,26210,8.38,73414.3,-4.29,-4.81,-4.81,0,*58
1510959860.03,26211,8.44,73412.3,-4.27,-4.81,-4.81,0,*57
1510959861.3,26212,8.38,73410.0,-4.27,-4.81,-4.81,0,*54
1510959862.58,26213,8.38,73414.3,-4.27,-4.81,-4.77,0,*5C
1510959863.85,26214,8.38,73410.5,-4.27,-4.77,-4.77,0,*52
1510959865.12,26215,8.38,73412.5,-4.27,-4.81,-4.81,0,*53
1510959866.39,26216,8.38,73408.8,-4.27,-4.81,-4.77,0,*59
1510959867.67,26217,8.38,73410.8,-4.27,-4.81,-4.77,0,*58
1510959868.94,26218,8.38,73412.5,-4.27,-4.81,-4.77,0,*57
1510959870.22,26219,8.38,73414.8,-4.27,-4.81,-4.81,0,*5F
1510959871.49,26220,8.38,73412.5,-4.27,-4.77,-4.81,0,*5C
1510959872.74,26221,8.38,73408.5,-4.29,-4.81,-4.81,0,*5A
1510959874.01,26222,8.44,73412.0,-4.27,-4.77,-4.77,0,*57
1510959875.29,26223,8.38,73410.8,-4.27,-4.81,-4.81,0,*56
1510959876.56,26224,8.38,73412.8,-4.27,-4.81,-4.81,0,*51
1510959877.84,26225,8.38,73412.0,-4.27,-4.77,-4.81,0,*59
1510959879.11,26226,8.38,73414.0,-4.27,-4.81,-4.77,0,*5A
1510959880.38,26227,8.38,73414.3,-4.27,-4.77,-4.81,0,*5B
1510959881.66,26228,8.38,73408.3,-4.27,-4.77,-4.81,0,*54
1510959882.93,26229,8.38,73412.3,-4.27,-4.77,-4.81,0,*55
1510959884.2,26230,8.38,73410.8,-4.27,-4.81,-4.81,0,*54
1510959885.48,26231,8.44,73414.8,-4.27,-4.81,-4.77,0,*5C
1510959886.75,26232,8.38,73408.5,-4.27,-4.77,-4.81,0,*5F
1510959888.02,26233,8.38,73410.5,-4.27,-4.81,-4.77,0,*5E
1510959889.27,26234,8.38,73408.8,-4.29,-4.93,-4.85,0,*59
1510959890.53,26235,8.38,73412.8,-4.29,-4.81,-4.85,0,*5B
1510959891.8,26236,8.38,73414.0,-4.27,-4.81,-4.81,0,*52
1510959893.08,26237,8.38,73408.5,-4.27,-4.81,-4.77,0,*5A
1510959894.35,26238,8.38,73408.3,-4.27,-4.77,-4.81,0,*55
1510959895.62,26239,8.38,73408.8,-4.27,-4.77,-4.81,0,*54
1510959896.87,26240,8.38,73414.3,-4.29,-4.85,-4.85,0,*5D
1510959898.15,26241,8.44,73414.3,-4.27,-4.81,-4.77,0,*5B
1510959899.4,26242,8.38,73410.5,-4.33,-4.81,-4.81,0,*54
1510959900.65,26243,8.38,73412.0,-4.29,-4.81,-4.81,0,*5E
1510959901.9,26244,8.38,73410.8,-4.29,-4.85,-4.81,0,*5D
1510959903.16,26245,8.38,73412.3,-4.29,-4.81,-4.81,0,*58
1510959904.41,26246,8.38,73408.0,-4.29,-4.81,-4.81,0,*5B
1510959905.68,26247,8.44,73414.0,-4.27,-4.81,-4.77,0,*5D
1510959906.94,26248,8.38,73408.8,-4.29,-4.81,-4.85,0,*51
1510959908.21,26249,8.38,73412.8,-4.27,-4.81,-4.81,0,*5A
1510959909.49,26250,8.38,73408.3,-4.27,-4.81,-4.77,0,*5B
1510959910.76,26251,8.38,73410.5,-4.27,-4.81,-4.77,0,*5A
1510959912.03,26252,8.38,73412.3,-4.27,-4.81,-4.77,0,*59
1510959913.28,26253,8.38,73410.8,-4.29,-4.85,-4.81,0,*5B
1510959914.56,26254,8.38,73412.8,-4.27,-4.81,-4.81,0,*56
1510959915.83,26255,8.44,73412.5,-4.27,-4.77,-4.77,0,*57
1510959917.1,26256,8.38,73412.0,-4.27,-4.81,-4.77,0,*5D
1510959918.37,26257,8.38,73408.0,-4.27,-4.77,-4.81,0,*5C
1510959919.64,26258,8.38,73412.5,-4.27,-4.77,-4.77,0,*5A
1510959920.92,26259,8.38,73408.3,-4.27,-4.81,-4.81,0,*5B
1510959922.17,26260,8.38,73410.8,-4.29,-4.85,-4.81,0,*5B
1510959923.43,26261,8.38,73412.3,-4.29,-4.81,-4.85,0,*5A
1510959924.68,26262,8.44,73414.8,-4.29,-4.81,-4.81,0,*5D
1510959925.93,26263,8.38,73410.5,-4.29,-4.81,-4.85,0,*58
1510959927.19,26264,8.38,73408.3,-4.29,-4.81,-4.85,0,*5F
1510959928.44,26265,8.38,73408.8,-4.29,-4.81,-4.81,0,*5A
1510959929.69,26266,8.38,73408.5,-4.29,-4.85,-4.81,0,*5D
1510959930.95,26267,8.38,73410.5,-4.29,-4.85,-4.81,0,*5C
1510959932.2,26268,8.38,73410.3,-4.29,-4.81,-4.85,0,*53
1510959933.45,26269,8.38,73410.3,-4.29,-4.81,-4.73,0,*5B
1510959934.72,26270,8.38,73410.8,-4.27,-4.77,-4.81,0,*59
1510959936.0,26271,8.38,73412.5,-4.27,-4.81,-4.81,0,*51
1510959937.25,26272,8.38,73408.5,-4.29,-4.85,-4.85,0,*5C
1510959938.5,26273,8.38,73414.5,-4.33,-4.81,-4.81,0,*56
1510959939.78,26274,8.44,73414.5,-4.27,-4.81,-4.81,0,*54
1510959941.03,26275,8.38,73406.3,-4.29,-4.85,-4.81,0,*5F
1510959942.28,26276,8.44,73414.3,-4.29,-4.85,-4.85,0,*58
1510959943.53,26277,8.38,73410.3,-4.29,-4.85,-4.81,0,*5D
1510959944.78,26278,8.38,73412.5,-4.29,-4.85,-4.81,0,*52
1510959946.04,26279,8.38,73408.0,-4.29,-4.85,-4.81,0,*53
1510959947.31,26280,8.44,73412.8,-4.27,-4.81,-4.77,0,*56
1510959948.58,26281,8.38,73408.3,-4.27,-4.81,-4.81,0,*5E
1510959949.86,26282,8.38,73412.3,-4.27,-4.81,-4.81,0,*5D
1510959951.11,26283,8.38,73410.3,-4.29,-4.85,-4.81,0,*56
1510959952.37,26284,8.38,73412.3,-4.29,-4.81,-4.81,0,*55
1510959953.62,26285,8.38,73410.8,-4.29,-4.81,-4.85,0,*50
1510959954.87,26286,8.38,73410.8,-4.29,-4.85,-4.85,0,*57
1510959956.13,26287,8.44,73414.0,-4.29,-4.81,-4.81,0,*56
1510959957.38,26288,8.38,73408.8,-4.33,-4.81,-4.81,0,*52
1510959958.63,26289,8.38,73410.8,-4.29,-4.85,-4.85,0,*58
1510959959.88,26290,8.38,73410.8,-4.29,-4.81,-4.81,0,*50
1510959961.13,26291,8.44,73412.5,-4.29,-4.85,-4.81,0,*55
1510959962.41,26292,8.38,73410.5,-4.27,-4.81,-4.81,0,*5C
1510959963.66,26293,8.38,73408.8,-4.29,-4.85,-4.81,0,*57
1510959964.91,26294,8.44,73414.8,-4.29,-4.81,-4.81,0,*54
1510959966.17,26295,8.38,73410.3,-4.29,-4.81,-4.85,0,*51
1510959967.42,26296,8.38,73408.5,-4.29,-4.85,-4.81,0,*52
1510959968.67,26297,8.38,73408.8,-4.29,-4.81,-4.85,0,*53
1510959969.93,26298,8.38,73410.5,-4.29,-4.85,-4.85,0,*58
1510959971.18,26299,8.38,73410.5,-4.33,-4.81,-4.85,0,*56
1510959972.43,26300,8.38,73408.3,-4.29,-4.85,-4.81,0,*5C
1510959973.68,26301,8.38,73410.3,-4.29,-4.81,-4.85,0,*5D
1510959974.94,26302,8.38,73410.3,-4.29,-4.81,-4.81,0,*5A
1510959976.19,26303,8.38,73410.3,-4.29,-4.85,-4.85,0,*5B
1510959977.44,26304,8.38,73408.5,-4.29,-4.85,-4.85,0,*5C
1510959978.69,26305,8.38,73408.8,-4.29,-4.85,-4.85,0,*5D
1510959979.95,26306,8.38,73404.3,-4.29,-4.81,-4.81,0,*5E
1510959981.2,26307,8.38,73408.3,-4.29,-4.81,-4.81,0,*5F
1510959982.45,26308,8.44,73412.8,-4.29,-4.85,-4.85,0,*50
1510959983.72,26309,8.38,73414.0,-4.27,-4.77,-4.81,0,*56
1510959984.98,26310,8.38,73408.5,-4.29,-4.81,-4.81,0,*59
1510959986.23,26311,8.44,73414.0,-4.29,-4.81,-4.85,0,*5C
1510959987.49,26312,8.38,73408.3,-4.29,-4.81,-4.85,0,*5F
1510959988.74,26313,8.38,73408.3,-4.29,-4.85,-4.85,0,*5A
1510959990.01,26314,8.38,73410.3,-4.27,-4.81,-4.81,0,*53
1510959991.27,26315,8.38,73412.3,-4.29,-4.85,-4.81,0,*58
1510959992.52,26316,8.44,73412.5,-4.29,-4.85,-4.81,0,*5B
1510959993.79,26317,8.38,73404.8,-4.27,-4.77,-4.81,0,*59
1510959995.05,26318,8.38,73410.8,-4.29,-4.81,-4.81,0,*51
1510959996.3,26319,8.38,73408.3,-4.29,-4.81,-4.81,0,*50
1510959997.57,26320,8.38,73412.3,-4.27,-4.77,-4.77,0,*54
1510959998.82,26321,8.38,73410.8,-4.29,-4.85,-4.85,0,*5B
1510960000.1,26322,8.44,73414.5,-4.27,-4.81,-4.81,0,*56
1510960001.37,26323,8.38,73408.3,-4.27,-4.81,-4.81,0,*57
1510960002.62,26324,8.38,73410.0,-4.29,-4.85,-4.81,0,*5A
1510960003.9,26325,8.38,73408.0,-4.27,-4.81,-4.81,0,*51
1510960005.18,26326,8.38,73410.0,-4.27,-4.89,-4.77,0,*53
1510960006.42,26327,8.38,73410.8,-4.33,-4.85,-4.81,0,*52
1510960007.68,26328,8.38,73408.3,-4.29,-4.85,-4.85,0,*52
1510960008.95,26329,8.38,73408.8,-4.27,-4.81,-4.77,0,*54
1510960010.22,26330,8.38,73410.0,-4.27,-4.77,-4.81,0,*5C
1510960011.47,26331,8.38,73408.8,-4.29,-4.85,-4.81,0,*5E
1510960012.73,26332,8.38,73410.8,-4.29,-4.81,-4.81,0,*59
1510960014.0,26333,8.44,73412.5,-4.27,-4.77,-4.77,0,*56
1510960015.27,26334,8.44,73414.8,-4.27,-4.81,-4.81,0,*51
1510960016.55,26335,8.38,73410.3,-4.27,-4.81,-4.81,0,*50
1510960017.82,26336,8.38,73410.0,-4.27,-4.81,-4.77,0,*5A
1510960019.1,26337,8.38,73412.3,-4.27,-4.81,-4.81,0,*52
1510960020.35,26338,8.38,73408.0,-4.29,-4.85,-4.81,0,*57
1510960021.6,26339,8.38,73410.8,-4.29,-4.85,-4.85,0,*52
1510960022.85,26340,8.38,73408.0,-4.29,-4.85,-4.81,0,*58
1510960024.11,26341,8.38,73410.5,-4.29,-4.81,-4.85,0,*59
1510960025.36,26342,8.38,73410.5,-4.29,-4.81,-4.81,0,*5E
1510960026.61,26343,8.38,73408.8,-4.29,-4.85,-4.85,0,*5F
1510960027.87,26344,8.38,73410.8,-4.29,-4.85,-4.85,0,*58
1510960029.12,26345,8.38,73406.5,-4.29,-4.85,-4.81,0,*5D
1510960030.36,26346,8.38,73410.5,-4.33,-4.85,-4.85,0,*51
1510960031.62,26347,8.44,73412.8,-4.29,-4.85,-4.81,0,*5F
1510960032.87,26348,8.38,73410.3,-4.29,-4.81,-4.81,0,*54
1510960034.12,26349,8.38,73408.3,-4.29,-4.85,-4.81,0,*51
1510960035.39,26350,8.38,73408.0,-4.27,-4.77,-4.77,0,*53
1510960036.64,26351,8.38,73406.0,-4.33,-4.81,-4.85,0,*53
1510960037.9,26352,8.38,73408.0,-4.29,-4.81,-4.81,0,*5F
1510960039.15,26353,8.38,73410.0,-4.29,-4.85,-4.85,0,*5E
1510960040.4,26354,8.38,73410.3,-4.29,-4.81,-4.85,0,*5D
1510960041.65,26355,8.38,73410.3,-4.29,-4.85,-4.81,0,*5C
1510960042.91,26356,8.38,73410.0,-4.29,-4.85,-4.85,0,*5B
1510960044.16,26357,8.38,73412.3,-4.29,-4.81,-4.85,0,*5E
1510960045.41,26358,8.38,73410.3,-4.29,-4.85,-4.81,0,*51
1510960046.67,26359,8.38,73410.8,-4.29,-4.81,-4.85,0,*50
1510960047.92,26360,8.38,73410.3,-4.29,-4.85,-4.85,0,*5E
1510960049.17,26361,8.38,73410.8,-4.29,-4.81,-4.85,0,*5B
1510960050.42,26362,8.38,73412.0,-4.33,-4.81,-4.85,0,*53
1510960051.67,26363,8.38,73408.0,-4.29,-4.85,-4.81,0,*59
1510960052.93,26364,8.38,73410.8,-4.29,-4.81,-4.81,0,*5A
1510960054.18,26365,8.38,73410.5,-4.29,-4.85,-4.85,0,*5B
1510960055.43,26366,8.38,73410.8,-4.33,-4.85,-4.81,0,*57
1510960056.7,26367,8.44,73414.5,-4.27,-4.77,-4.77,0,*57
1510960057.97,26368,8.38,73408.5,-4.27,-4.77,-4.77,0,*58
1510960059.22,26369,8.38,73412.3,-4.29,-4.85,-4.85,0,*57
1510960060.47,26370,8.38,73408.3,-4.29,-4.81,-4.85,0,*5B
1510960061.72,26371,8.38,73408.8,-4.29,-4.85,-4.81,0,*5A
1510960062.97,26372,8.44,73410.3,-4.33,-4.85,-4.85,0,*56
1510960064.23,26373,8.38,73410.0,-4.29,-4.81,-4.85,0,*58
1510960065.48,26374,8.38,73404.8,-4.29,-4.85,-4.85,0,*5B
1510960066.73,26375,8.38,73406.3,-4.29,-4.85,-4.81,0,*5E
1510960067.98,26376,8.38,73408.3,-4.33,-4.81,-4.85,0,*56
1510960069.23,26377,8.38,73404.8,-4.29,-4.85,-4.85,0,*58
1510960070.49,26378,8.38,73408.3,-4.29,-4.81,-4.81,0,*57
1510960071.74,26379,8.44,73414.3,-4.29,-4.81,-4.81,0,*56
1510960073.0,26380,8.38,73406.0,-4.29,-4.81,-4.85,0,*54
1510960074.25,26381,8.38,73410.3,-4.29,-4.85,-4.81,0,*55
1510960075.5,26382,8.38,73410.0,-4.33,-4.85,-4.85,0,*59
1510960076.75,26383,8.38,73408.3,-4.29,-4.85,-4.81,0,*57
1510960078.0,26384,8.38,73406.8,-4.33,-4.85,-4.81,0,*5B
1510960079.25,26385,8.44,73412.0,-4.29,-4.81,-4.81,0,*55
1510960080.5,26386,8.44,73412.8,-4.29,-4.85,-4.81,0,*52
1510960081.75,26387,8.38,73408.5,-4.33,-4.81,-4.81,0,*5C
1510960083.0,26388,8.38,73410.5,-4.29,-4.85,-4.85,0,*58
1510960084.26,26389,8.38,73410.0,-4.29,-4.81,-4.81,0,*59
1510960085.51,26390,8.38,73408.3,-4.33,-4.85,-4.81,0,*5E
1510960086.76,26391,8.38,73408.5,-4.29,-4.85,-4.81,0,*54
1510960088.01,26392,8.38,73410.0,-4.29,-4.85,-4.81,0,*57
1510960089.26,26393,8.38,73408.5,-4.29,-4.85,-4.81,0,*56
1510960090.51,26394,8.38,73410.8,-4.29,-4.85,-4.85,0,*55
1510960091.76,26395,8.38,73408.8,-4.33,-4.85,-4.85,0,*5F
1510960093.01,26396,8.38,73410.3,-4.29,-4.81,-4.85,0,*53
1510960094.27,26397,8.38,73410.0,-4.29,-4.81,-4.81,0,*56
1510960095.52,26398,8.38,73410.0,-4.29,-4.85,-4.85,0,*59
1510960096.77,26399,8.38,73410.8,-4.29,-4.85,-4.85,0,*58
1510960098.02,26400,8.44,73410.3,-4.29,-4.85,-4.85,0,*5F
1510960099.27,26401,8.44,73412.3,-4.33,-4.85,-4.85,0,*55
1510960100.52,26402,8.38,73408.8,-4.33,-4.81,-4.81,0,*56
1510960101.77,26403,8.38,73410.3,-4.33,-4.85,-4.85,0,*57
1510960103.02,26404,8.38,73410.5,-4.33,-4.85,-4.85,0,*50
1510960104.27,26405,8.38,73408.5,-4.29,-4.85,-4.85,0,*5A
1510960105.52,26406,8.38,73410.5,-4.29,-4.85,-4.81,0,*5D
1510960106.77,26407,8.44,73410.8,-4.33,-4.85,-4.81,0,*57
1510960108.02,26408,8.44,73412.5,-4.29,-4.85,-4.81,0,*53
1510960109.28,26409,8.44,73408.8,-4.29,-4.81,-4.81,0,*56
1510960110.53,26410,8.38,73408.5,-4.29,-4.85,-4.85,0,*5E
1510960111.78,26411,8.38,73408.8,-4.29,-4.85,-4.85,0,*5F
1510960113.03,26412,8.38,73406.3,-4.29,-4.93,-4.81,0,*5F
1510960114.28,26413,8.44,73414.8,-4.29,-4.85,-4.85,0,*5D
1510960115.54,26414,8.38,73404.5,-4.29,-4.85,-4.85,0,*5A
1510960116.79,26415,8.38,73408.8,-4.29,-4.93,-4.81,0,*58
1510960118.04,26416,8.38,73410.3,-4.29,-4.85,-4.81,0,*5C
1510960119.29,26417,8.38,73408.3,-4.29,-4.81,-4.85,0,*5D
1510960120.54,26418,8.38,73406.3,-4.29,-4.85,-4.85,0,*56
1510960121.79,26419,8.38,73408.5,-4.33,-4.85,-4.85,0,*5C
1510960123.04,26420,8.38,73410.3,-4.33,-4.81,-4.81,0,*56
1510960124.3,26421,8.38,73408.0,-4.29,-4.81,-4.81,0,*5C
1510960125.55,26422,8.38,73408.5,-4.29,-4.85,-4.85,0,*5F
1510960126.8,26423,8.38,73406.8,-4.29,-4.81,-4.81,0,*5E
1510960128.06,26424,8.38,73406.8,-4.29,-4.85,-4.81,0,*5D
1510960129.31,26425,8.38,73408.0,-4.29,-4.85,-4.85,0,*58
1510960130.56,26426,8.38,73406.3,-4.29,-4.85,-4.85,0,*5B
1510960131.81,26427,8.38,73408.0,-4.29,-4.85,-4.85,0,*5A